When you browse on this site, cookies collect data to enhance your experience and personalize the content and advertising you see.
Visit our Privacy Policy to learn more. By continuing to use the site, you agree to this use of cookies and data.
  • In Netherlands
  • List of Countries
  • For 7 days
  • Water Temperature
  • Weather Map
  • Weather Widgets
  • user-avatar
    Login

    Hourly Weather Vidin

    Today, 18 August, Sunday

    Time Temperature Precipitation Wind Pressure Humidity
    00:00 +20°C° 0 mm 2 mps 759 mmHg 57%
    01:00 +20°C° 0 mm 2 mps 759 mmHg 59%
    02:00 +19°C° 0 mm 2 mps 759 mmHg 60%
    03:00 +19°C° 0 mm 2 mps 759 mmHg 62%
    04:00 +19°C° 0 mm 1 mps 759 mmHg 63%
    05:00 +19°C° 0 mm 1 mps 759 mmHg 65%
    06:00 +20°C° 0 mm 1 mps 759 mmHg 59%
    07:00 +22°C° 0 mm 1 mps 759 mmHg 54%
    08:00 +24°C° 0 mm 2 mps 760 mmHg 48%
    09:00 +26°C° 0 mm 2 mps 759 mmHg 42%
    10:00 +28°C° 0 mm 2 mps 759 mmHg 36%
    11:00 +30°C° 0 mm 2 mps 759 mmHg 30%
    12:00 +32°C° 0 mm 2 mps 759 mmHg 26%
    13:00 +34°C° 0 mm 2 mps 759 mmHg 23%
    14:00 +34°C° 0 mm 1 mps 758 mmHg 20%
    15:00 +34°C° 0 mm 1 mps 758 mmHg 19%
    16:00 +34°C° 0 mm 1 mps 758 mmHg 18%
    17:00 +34°C° 0 mm 1 mps 758 mmHg 18%
    18:00 +32°C° 0 mm 1 mps 758 mmHg 22%
    19:00 +29°C° 0 mm 1 mps 758 mmHg 25%
    20:00 +27°C° 0 mm 1 mps 759 mmHg 29%
    21:00 +26°C° 0 mm 1 mps 759 mmHg 32%
    22:00 +25°C° 0 mm 1 mps 759 mmHg 34%
    23:00 +24°C° 0 mm 1 mps 759 mmHg 37%

    Tomorrow, 19 August, Monday

    Time Temperature Precipitation Wind Pressure Humidity
    00:00 +23°C° 0 mm 1 mps 759 mmHg 39%
    01:00 +22°C° 0 mm 1 mps 759 mmHg 41%
    02:00 +22°C° 0 mm 1 mps 759 mmHg 43%
    03:00 +21°C° 0 mm 1 mps 759 mmHg 45%
    04:00 +21°C° 0 mm 1 mps 759 mmHg 48%
    05:00 +20°C° 0 mm 1 mps 759 mmHg 50%
    06:00 +22°C° 0 mm 1 mps 760 mmHg 47%
    07:00 +24°C° 0 mm 1 mps 760 mmHg 43%
    08:00 +25°C° 0 mm 1 mps 760 mmHg 39%
    09:00 +28°C° 0 mm 1 mps 760 mmHg 34%
    10:00 +30°C° 0 mm 2 mps 760 mmHg 30%
    11:00 +32°C° 0 mm 2 mps 760 mmHg 25%
    12:00 +35°C° 0 mm 2 mps 759 mmHg 23%
    13:00 +36°C° 0 mm 2 mps 759 mmHg 21%
    14:00 +37°C° 0 mm 3 mps 759 mmHg 19%
    15:00 +37°C° 0 mm 3 mps 759 mmHg 19%
    16:00 +37°C° 0 mm 3 mps 758 mmHg 19%
    17:00 +38°C° 0 mm 3 mps 758 mmHg 19%
    18:00 +35°C° 0 mm 3 mps 758 mmHg 23%
    19:00 +33°C° 0 mm 3 mps 759 mmHg 27%
    20:00 +29°C° 0 mm 3 mps 759 mmHg 31%
    21:00 +28°C° 0 mm 2 mps 759 mmHg 34%
    22:00 +26°C° 0 mm 2 mps 760 mmHg 37%
    23:00 +25°C° 0 mm 1 mps 760 mmHg 40%

    Day after tomorrow, 20 August, Tuesday

    Time Temperature Precipitation Wind Pressure Humidity
    00:00 +25°C° 0 mm 1 mps 760 mmHg 42%
    01:00 +24°C° 0 mm 1 mps 760 mmHg 43%
    02:00 +23°C° 0 mm 1 mps 760 mmHg 45%
    03:00 +23°C° 0 mm 1 mps 760 mmHg 47%
    04:00 +22°C° 0 mm 1 mps 760 mmHg 49%
    05:00 +22°C° 0 mm 1 mps 761 mmHg 50%
    06:00 +23°C° 0 mm 1 mps 761 mmHg 47%
    07:00 +25°C° 0 mm 1 mps 761 mmHg 43%
    08:00 +27°C° 0 mm 2 mps 762 mmHg 39%
    09:00 +29°C° 0 mm 2 mps 761 mmHg 34%
    10:00 +31°C° 0 mm 2 mps 761 mmHg 29%
    11:00 +35°C° 0 mm 2 mps 761 mmHg 25%
    12:00 +36°C° 0 mm 2 mps 761 mmHg 23%
    13:00 +37°C° 0 mm 2 mps 761 mmHg 21%
    14:00 +38°C° 0 mm 2 mps 760 mmHg 19%
    15:00 +39°C° 0 mm 2 mps 760 mmHg 19%
    16:00 +39°C° 0 mm 3 mps 760 mmHg 19%
    17:00 +39°C° 0 mm 3 mps 760 mmHg 19%
    18:00 +36°C° 0 mm 3 mps 760 mmHg 23%
    19:00 +34°C° 0 mm 3 mps 760 mmHg 27%
    20:00 +30°C° 0 mm 4 mps 760 mmHg 31%
    21:00 +29°C° 0 mm 3 mps 760 mmHg 34%
    22:00 +28°C° 0 mm 2 mps 761 mmHg 37%
    23:00 +26°C° 0 mm 2 mps 761 mmHg 40%

    21 August, Wednesday

    Time Temperature Precipitation Wind Pressure Humidity
    00:00 +26°C° 0 mm 2 mps 761 mmHg 42%
    01:00 +25°C° 0 mm 2 mps 761 mmHg 43%
    02:00 +24°C° 0 mm 2 mps 761 mmHg 45%
    03:00 +24°C° 0 mm 1 mps 761 mmHg 47%
    04:00 +23°C° 0 mm 1 mps 761 mmHg 49%
    05:00 +22°C° 0 mm 1 mps 761 mmHg 52%
    06:00 +24°C° 0 mm 1 mps 761 mmHg 47%
    07:00 +25°C° 0 mm 1 mps 761 mmHg 42%
    08:00 +27°C° 0 mm 1 mps 762 mmHg 38%
    09:00 +30°C° 0 mm 2 mps 761 mmHg 33%
    10:00 +32°C° 0 mm 2 mps 761 mmHg 28%
    11:00 +35°C° 0 mm 2 mps 761 mmHg 22%
    12:00 +36°C° 0 mm 2 mps 760 mmHg 21%
    13:00 +37°C° 0 mm 3 mps 760 mmHg 20%
    14:00 +39°C° 0 mm 3 mps 759 mmHg 19%
    15:00 +39°C° 0 mm 3 mps 759 mmHg 19%
    16:00 +39°C° 0 mm 3 mps 759 mmHg 18%
    17:00 +39°C° 0 mm 3 mps 759 mmHg 18%
    18:00 +36°C° 0 mm 3 mps 759 mmHg 22%
    19:00 +34°C° 0 mm 3 mps 759 mmHg 26%
    20:00 +30°C° 0 mm 2 mps 759 mmHg 29%
    21:00 +29°C° 0 mm 2 mps 759 mmHg 31%
    22:00 +29°C° 0 mm 1 mps 760 mmHg 33%
    23:00 +28°C° 0 mm 1 mps 760 mmHg 34%

    22 August, Thursday

    Time Temperature Precipitation Wind Pressure Humidity
    00:00 +27°C° 0 mm 1 mps 760 mmHg 36%
    01:00 +26°C° 0 mm 1 mps 760 mmHg 37%
    02:00 +26°C° 0 mm 1 mps 760 mmHg 39%
    03:00 +25°C° 0 mm 1 mps 760 mmHg 40%
    04:00 +25°C° 0 mm 1 mps 760 mmHg 42%
    05:00 +24°C° 0 mm 1 mps 760 mmHg 44%
    06:00 +26°C° 0 mm 1 mps 760 mmHg 40%
    07:00 +28°C° 0 mm 1 mps 760 mmHg 37%
    08:00 +29°C° 0 mm 1 mps 760 mmHg 33%
    09:00 +32°C° 0 mm 1 mps 760 mmHg 29%
    10:00 +34°C° 0 mm 1 mps 760 mmHg 25%
    11:00 +37°C° 0 mm 1 mps 760 mmHg 21%
    12:00 +39°C° 0 mm 1 mps 760 mmHg 20%
    13:00 +40°C° 0 mm 1 mps 759 mmHg 19%
    14:00 +41°C° 0 mm 1 mps 759 mmHg 18%
    15:00 +40°C° 0 mm 1 mps 758 mmHg 19%
    16:00 +40°C° 0 mm 2 mps 758 mmHg 19%
    17:00 +40°C° 0 mm 2 mps 758 mmHg 19%
    18:00 +37°C° 0 mm 2 mps 758 mmHg 23%
    19:00 +35°C° 0 mm 2 mps 759 mmHg 27%
    20:00 +32°C° 0 mm 2 mps 759 mmHg 31%
    21:00 +31°C° 0 mm 2 mps 759 mmHg 33%
    22:00 +30°C° 0 mm 2 mps 759 mmHg 35%
    23:00 +30°C° 0 mm 2 mps 760 mmHg 37%

    23 August, Friday

    Time Temperature Precipitation Wind Pressure Humidity
    00:00 +28°C° 0 mm 2 mps 760 mmHg 40%
    01:00 +27°C° 0 mm 2 mps 760 mmHg 43%
    02:00 +26°C° 0 mm 3 mps 760 mmHg 46%
    03:00 +25°C° 0 mm 2 mps 760 mmHg 50%
    04:00 +24°C° 0 mm 2 mps 760 mmHg 54%
    05:00 +24°C° 0 mm 2 mps 760 mmHg 59%
    06:00 +25°C° 0 mm 2 mps 760 mmHg 56%
    07:00 +26°C° 0 mm 3 mps 761 mmHg 53%
    08:00 +28°C° 0 mm 3 mps 761 mmHg 51%
    09:00 +30°C° 0 mm 3 mps 761 mmHg 45%
    10:00 +33°C° 0 mm 3 mps 761 mmHg 39%
    11:00 +35°C° 0 mm 3 mps 761 mmHg 34%
    12:00 +36°C° 0 mm 3 mps 760 mmHg 31%
    13:00 +37°C° 0 mm 3 mps 760 mmHg 27%
    14:00 +39°C° 0 mm 3 mps 759 mmHg 24%
    15:00 +39°C° 0 mm 3 mps 759 mmHg 24%
    16:00 +39°C° 0 mm 3 mps 759 mmHg 23%
    17:00 +40°C° 0 mm 4 mps 759 mmHg 22%
    18:00 +37°C° 0 mm 3 mps 759 mmHg 26%
    19:00 +34°C° 0 mm 3 mps 759 mmHg 30%
    20:00 +31°C° 0 mm 3 mps 759 mmHg 34%
    21:00 +30°C° 0 mm 3 mps 760 mmHg 38%
    22:00 +28°C° 0 mm 2 mps 760 mmHg 42%
    23:00 +27°C° 0 mm 2 mps 761 mmHg 46%
    Show more